GW2216 Weather Reports


time (UTC)temp
F
wind
direction
speed
knots
gust
knots
rain 1hr
in
rain 24hr
in
rain mn
in
humidity
%
barometer
mb
20260503054550 50 271 1.7 3.5 0.00 0.04 0.04 79 1016.1
20260503053038 51 0 0.9 3.5 0.00 0.04 0.04 80 1016.5
20260503051530 51 0 0.0 0.0 0.00 0.04 0.04 80 1016.6
20260503050032 52 0 0.0 1.7 0.00 0.04 0.04 76 1016.7
20260503044532 51 340 1.7 5.2 0.00 0.04 0.04 78 1016.5
20260503043031 51 282 1.7 3.5 0.00 0.04 0.04 79 1016.5
20260503041530 51 0 0.0 2.6 0.00 0.04 0.04 78 1016.4
20260503040037 52 275 4.3 6.1 0.00 0.04 0.04 76 1016.2
20260503034530 52 304 0.9 1.7 0.00 0.04 0.04 76 1016.4
20260503033032 53 0 0.0 2.6 0.00 0.04 0.04 71 1016.4
20260503031536 53 0 0.0 7.0 0.00 0.04 0.04 72 1016.5
20260503030032 53 110 0.0 1.7 0.00 0.04 0.04 74 1016.2
20260503024531 54 38 0.0 9.6 0.00 0.04 0.04 66 1015.6
20260503023031 54 334 3.5 9.6 0.00 0.04 0.04 68 1015.3
20260503021528 53 320 2.6 7.8 0.00 0.04 0.04 71 1015.1
20260503020028 53 302 3.5 8.7 0.00 0.04 0.04 72 1015.0
20260503014531 54 352 2.6 8.7 0.00 0.04 0.04 74 1015.2
20260503013032 55 331 2.6 7.0 0.00 0.04 0.04 72 1015.0
20260503011530 55 321 2.6 5.2 0.04 0.04 0.04 76 1015.2
20260503010035 56 0 0.0 1.7 0.04 0.04 0.04 77 1015.4
20260503004555 55 0 0.0 1.7 0.04 0.04 0.04 79 1015.1
20260503003030 56 152 4.3 22.6 0.04 0.04 0.04 66 1015.2
20260503001530 64 148 0.9 7.0 0.00 0.00 0.00 34 1014.3
20260503000033 65 42 0.0 4.3 0.00 0.00 0.00 34 1013.9
20260502234545 65 83 1.7 7.8 0.00 0.00 0.00 33 1013.9
20260502233029 67 98 5.2 12.2 0.00 0.00 0.00 30 1013.8
20260502231528 68 193 1.7 7.8 0.00 0.00 0.00 29 1013.6
20260502230050 69 266 3.5 7.8 0.00 0.00 0.00 29 1013.8
20260502224532 68 201 1.7 7.0 0.00 0.00 0.00 29 1013.9
20260502223030 68 228 5.2 10.4 0.00 0.00 0.00 28 1014.2
20260502221529 68 159 4.3 8.7 0.00 0.00 0.00 29 1014.4
20260502220029 67 144 3.5 6.1 0.00 0.00 0.00 31 1014.8
20260502214539 66 200 1.7 6.1 0.00 0.00 0.00 33 1015.0
20260502213030 63 211 2.6 24.3 0.00 0.00 0.00 38 1015.2
20260502211535 67 157 13.9 22.6 0.00 0.00 0.00 26 1015.6
20260502210032 68 148 4.3 20.0 0.00 0.00 0.00 30 1015.7
20260502204529 67 188 5.2 8.7 0.00 0.00 0.00 29 1015.5
20260502203030 67 187 2.6 8.7 0.00 0.00 0.00 29 1015.5
20260502201529 67 194 3.5 7.8 0.00 0.00 0.00 30 1015.6
20260502200028 67 191 6.1 12.2 0.00 0.00 0.00 29 1015.7
20260502194529 68 132 5.2 13.9 0.00 0.00 0.00 28 1015.8
20260502193032 68 242 5.2 13.0 0.00 0.00 0.00 28 1015.7
20260502191533 70 160 7.0 12.2 0.00 0.00 0.00 27 1015.9
20260502190032 70 200 3.5 13.9 0.00 0.00 0.00 27 1015.9
20260502184528 71 155 4.3 13.0 0.00 0.00 0.00 26 1016.0
20260502183037 69 200 5.2 9.6 0.00 0.00 0.00 27 1016.1
20260502181538 66 117 0.9 4.3 0.00 0.00 0.00 33 1016.3
20260502163035 61 352 1.7 5.2 0.00 0.00 0.00 37 1016.5
20260502161529 59 327 2.6 5.2 0.00 0.00 0.00 39 1016.4
20260502151531 56 50 0.0 1.7 0.00 0.00 0.00 41 1016.5
20260502123036 49 265 0.9 5.2 0.00 0.00 0.00 40 1015.6
20260502121540 48 211 3.5 5.2 0.00 0.00 0.00 42 1015.6
20260502114531 48 220 4.3 6.1 0.00 0.00 0.00 41 1015.5
20260502113028 50 236 3.5 6.1 0.00 0.00 0.00 38 1015.6
20260502111532 50 0 1.7 6.1 0.00 0.00 0.00 38 1015.7
20260502110035 49 241 2.6 5.2 0.00 0.00 0.00 38 1015.6
20260502104529 49 242 2.6 4.3 0.00 0.00 0.00 37 1015.6
20260502103029 48 232 1.7 3.5 0.00 0.00 0.00 37 1015.6
20260502101529 50 242 1.7 3.5 0.00 0.00 0.00 34 1015.5
20260502091530 51 252 2.6 6.1 0.00 0.00 0.00 29 1015.8
20260502071529 54 221 4.3 7.0 0.00 0.00 0.00 28 1016.8